Adana Incirlik AFB, Turkey

4:10 PM +03 on March 28, 2017 (GMT +0300)
Incirlik Air Base

Weather History for LTAG - November, 2013

Change the Weather History Date:

Saturday, November 30, 2013

  Actual Average Record
Temperature  
Mean Temperature 54 °F -  
Max Temperature 64 °F 62 °F 78 °F (2010)
Min Temperature 44 °F 45 °F 33 °F (2011)
Degree Days  
Heating Degree Days 11    
Growing Degree Days 4 (Base 50)    
Moisture  
Dew Point 29 °F    
Average Humidity 41    
Maximum Humidity 71    
Minimum Humidity 12    
Precipitation  
Precipitation 0.00 in - - ()
Sea Level Pressure  
Sea Level Pressure 30.16 in    
Wind  
Wind Speed 10 mph ()    
Max Wind Speed 18 mph    
Max Gust Speed -    
Visibility 6.1 miles    
Events      
Averages and records for this station are not official NWS values.
T = Trace of Precipitation, MM = Missing Value Source: Averaged Metar Reports

Daily Weather History Graph

Daily Weather History Graph

Search for Another Location

Airport or City:

Trip Planner

Search our weather history database for the weather conditions in past years. The results will help you decide how hot, cold, wet, or windy it might be!

Date:

Astronomy

Nov. 30, 2013 Rise Set
Actual Time 6:31 AM EET 4:21 PM EET
Civil Twilight 6:03 AM EET 4:50 PM EET
Nautical Twilight 5:31 AM EET 5:22 PM EET
Astronomical Twilight 4:59 AM EET 5:53 PM EET
Moon 3:23 AM EET (11/30) 2:28 PM EET (11/30)
Length of Visible Light 10h 47m
Length of Day
9h 49m
Waning Crescent, 9% of the Moon is Illuminated
Nov 30
Waning Crescent
Dec 3
New
Dec 9
First Quarter
Dec 17
Full
Dec 25
Last Quarter

Hourly Weather History & Observations

Time (EET) Temp. Windchill Dew Point Humidity Pressure Visibility Wind Dir Wind Speed Gust Speed Precip Events Conditions
12:20 AM 50.0 °F - 33.8 °F 54% 30.01 in 6.2 mi NE 8.1 mph - N/A   Partly Cloudy
12:50 AM 48.2 °F - 33.8 °F 58% 30.01 in 6.2 mi NE 9.2 mph - N/A   Partly Cloudy
1:20 AM 44.6 °F 39.7 °F 35.6 °F 71% 30.01 in 6.2 mi NE 9.2 mph - N/A   Partly Cloudy
1:50 AM 44.6 °F 39.2 °F 35.6 °F 71% 30.01 in 6.2 mi NE 10.4 mph - N/A   Partly Cloudy
2:00 AM 45 °F - 35 °F 58% 30.02 in 6 mi NE 10.4 mph - -   Scattered Clouds
2:20 AM 48.2 °F - 32.0 °F 54% 30.01 in 6.2 mi NE 11.5 mph - N/A   Partly Cloudy
2:50 AM 46.4 °F 41.1 °F 32.0 °F 57% 30.01 in 6.2 mi NE 11.5 mph - N/A   Partly Cloudy
3:20 AM 46.4 °F 41.9 °F 32.0 °F 57% 30.04 in 6.2 mi NE 9.2 mph - N/A   Partly Cloudy
3:50 AM 46.4 °F 42.9 °F 28.4 °F 50% 30.04 in 6.2 mi NE 6.9 mph - N/A   Partly Cloudy
4:20 AM 48.2 °F - 26.6 °F 43% 30.04 in 6.2 mi ENE 6.9 mph - N/A   Partly Cloudy
4:50 AM 50.0 °F - 26.6 °F 40% 30.04 in 6.2 mi ENE 8.1 mph - N/A   Partly Cloudy
5:00 AM 49 °F - 27 °F 29% 30.06 in 6 mi ENE 8.1 mph - -   Scattered Clouds
5:20 AM 48.2 °F - 28.4 °F 46% 30.06 in 6.2 mi NE 11.5 mph - N/A   Partly Cloudy
5:50 AM 46.4 °F 41.9 °F 28.4 °F 50% 30.06 in 6.2 mi NE 9.2 mph - N/A   Partly Cloudy
6:20 AM 46.4 °F 41.1 °F 24.8 °F 43% 30.09 in 6.2 mi NE 11.5 mph - N/A   Partly Cloudy
6:50 AM 48.2 °F - 28.4 °F 46% 30.12 in 6.2 mi NNE 11.5 mph - N/A   Partly Cloudy
7:20 AM 51.8 °F - 26.6 °F 38% 30.12 in 6.2 mi NE 13.8 mph - N/A   Partly Cloudy
7:50 AM 51.8 °F - 26.6 °F 38% 30.15 in 6.2 mi NE 11.5 mph - N/A   Partly Cloudy
8:00 AM 52 °F - 26 °F 24% 30.15 in 6 mi NE 11.5 mph - -   Scattered Clouds
8:20 AM 53.6 °F - 26.6 °F 35% 30.15 in 6.2 mi NE 9.2 mph - N/A   Partly Cloudy
8:50 AM 55.4 °F - 26.6 °F 33% 30.18 in 6.2 mi NE 10.4 mph - N/A   Partly Cloudy
9:20 AM 57.2 °F - 24.8 °F 29% 30.18 in 6.2 mi NNE 15.0 mph - N/A   Partly Cloudy
9:50 AM 59.0 °F - 24.8 °F 27% 30.18 in 6.2 mi NE 17.3 mph - N/A   Partly Cloudy
10:20 AM 60.8 °F - 24.8 °F 25% 30.18 in 6.2 mi ENE 16.1 mph - N/A   Partly Cloudy
10:50 AM 62.6 °F - 23.0 °F 22% 30.15 in - NNE 17.3 mph - N/A   Clear
11:00 AM 62 °F - 22 °F 12% 30.17 in 6 mi NNE 17.3 mph - -  
11:20 AM 62.6 °F - 23.0 °F 22% 30.15 in - ENE 13.8 mph - N/A   Clear
11:50 AM 64.4 °F - 23.0 °F 21% 30.15 in - NE 18.4 mph - N/A   Clear
12:20 PM 64.4 °F - 23.0 °F 21% 30.15 in - ENE 16.1 mph - N/A   Clear
12:50 PM 64.4 °F - 24.8 °F 22% 30.18 in - ENE 10.4 mph - N/A   Clear
1:20 PM 64.4 °F - 24.8 °F 22% 30.18 in - NE 9.2 mph - N/A   Clear
2:00 PM 62 °F - 25 °F 14% 30.19 in 6 mi NNE 11.5 mph - -  
2:20 PM 62.6 °F - 24.8 °F 24% 30.18 in - NE 9.2 mph - N/A   Clear
2:50 PM 62.6 °F - 26.6 °F 26% 30.18 in - NNE 6.9 mph - N/A   Clear
3:20 PM 62.6 °F - 28.4 °F 27% 30.18 in - NNE 10.4 mph - N/A   Clear
3:50 PM 60.8 °F - 30.2 °F 31% 30.18 in - NNE 4.6 mph - N/A   Clear
4:20 PM 57.2 °F - 30.2 °F 36% 30.21 in - NNE 9.2 mph - N/A   Clear
4:50 PM 51.8 °F - 32.0 °F 47% 30.21 in - NE 11.5 mph - N/A   Clear
5:00 PM 53 °F - 33 °F 33% 30.22 in 6 mi NE 11.5 mph - -  
5:20 PM 48.2 °F - 33.8 °F 58% 30.21 in - NNE 8.1 mph - N/A   Clear
5:50 PM 48.2 °F - 33.8 °F 58% 30.24 in - NNE 11.5 mph - N/A   Clear
6:20 PM 48.2 °F - 33.8 °F 58% 30.24 in - NE 10.4 mph - N/A   Clear
6:50 PM 44.6 °F 40.7 °F 33.8 °F 66% 30.27 in - NE 6.9 mph - N/A   Clear
7:20 PM 44.6 °F 41.4 °F 33.8 °F 66% 30.27 in - North 5.8 mph - N/A   Clear
7:50 PM 46.4 °F 41.5 °F 30.2 °F 53% 30.27 in - NNE 10.4 mph - N/A   Clear
8:00 PM 47 °F - 31 °F 40% 30.29 in 6 mi NNE 10.4 mph - -  
8:20 PM 50.0 °F - 28.4 °F 43% 30.30 in - North 8.1 mph - N/A   Clear
8:50 PM 48.2 °F - 30.2 °F 50% 30.30 in - NNE 6.9 mph - N/A   Clear
9:20 PM 48.2 °F - 32.0 °F 54% 30.30 in - NNE 10.4 mph - N/A   Clear
9:50 PM 50.0 °F - 28.4 °F 43% 30.30 in - NE 13.8 mph - N/A   Clear
10:20 PM 50.0 °F - 28.4 °F 43% 30.27 in - NNE 12.7 mph - N/A   Clear
10:50 PM 50.0 °F - 28.4 °F 43% 30.30 in - NNE 13.8 mph - N/A   Clear
11:00 PM 50 °F - 28 °F 30% 30.30 in 6 mi NNE 13.8 mph - -  
11:20 PM 53.6 °F - 26.6 °F 35% 30.27 in - NNE 13.8 mph - N/A   Clear
11:50 PM 53.6 °F - 26.6 °F 35% 30.27 in - NNE 15.0 mph - N/A   Clear